STARLINK-1168, 45072

Orbit data source: Space-Track

STARLINK-1168, 45072 is a payload satellite owned by SpaceX/Seattle (US) in LEO that was launched on Wed, 29 Jan 2020 UTC via an FALCON 9 launch vehicle from the Air Force Eastern Test Range (AFETR). Payloads include a variety of satellites, spacecraft, and rockets equipped with specific instruments for various scientific and technological missions. These include communications satellites like Starlink; space stations such as the ISS; scientific satellites like the Hubble; Earth observation satellites from companies like Planet Labs, Umbra, and HawkEye 360; GPS; miniature CubeSats for education and research; and military/defense satellites.

Loading next visibility...
STARLINK-1168 details
Identifier
45072, 2020-006AE
Orbit
LEO
Last TLE update9 hours ago
Origin
Flag of USSpaceX/Seattle (US)
ManufacturerSpaceX/Seattle
MissionOperational Commercial Communications
Bus & MotorSTARLINK, Unknown motor
Mass260 kg wet, ~248 kg dry
Launch date (UTC)
2020-01-29 (5 years ago)
Launch vehicle
FALCON 9
Launch site
Air Force Eastern Test Range (AFETR)
Object type
Payload
Rocket body
Debris
Shape & HBRBox + 1 Pan, 8.86 m
Radar Cross Section13.562 m², Large (>1 m²)

Expand to show TLE details & history

TLE from 9 hours ago
0 STARLINK-1168
1 45072U 20006AE  24336.95741270  .00005502  00000-0  38802-3 0  9995
2 45072  53.0593 183.8962 0002910  71.6004 288.5301 15.06395302267345
Epoch: 2024-12-01T22:58Z
Definitive object data (Epoch: 2024-12-01T22:58:40.457Z)
Latitude-0.00003°
Longitude127.93943°
Altitude547.466 km
Speed7.59 km/s
True Right ascension12h 15m 35s
True Declination0° 00' 00"
Sunlit
Object was in daylight at TLE epoch
Visualization TLE readout
Latitude-43.46369°
Longitude-8.61388°
Altitude563.764 km
Speed7.578 km/s
Apparent Right ascension22h 37m 11s
Apparent Declination-69° 18' 04"
Sunlit
Object is in daylight
Visualization observer readout
Local Sidereal Time05:45:56
Azimuth207.435° SW
Elevation-42.871°
Doppler factor1
Orbital elements
Apogee altitude549.511 km
Perigee altitude545.481 km
Semi-major axis6,925.633 km
Eccentricity0.000291
Inclination53.0593°
RAAN183.8962°
Arg. of periapsis71.6004°
True anomaly288.49848°
Mean anomaly288.5301°
Eccentric anomaly288.51429°
Mean motion3.76577 °/min
BSTAR0.00038802
Orbital period95.6 mins
Loading maneuver chart data...
Loading historical data...
Loading historical data...
Loading historical data...
Loading historical data...
Loading historical data...
Loading historical data...
Loading historical data...

STARLINK-1168 Visibility forecast

Observer location: undefined°, undefined

Span
Click to sort rows by Start time (UTC) header in descending order
Start Az.
Max El. time (UTC)
Max El. Az.
Max El.
End time (UTC)
End Az.
7 mins2024-12-02 16:39:46.474Z224.534° SW2024-12-02 16:43:46.474Z84.949° E43.729°2024-12-02 16:46:46.474Z52.886° ENE
4 mins2024-12-02 18:21:46.474Z304.295° NW2024-12-02 18:23:46.474Z345.866° N20.646°2024-12-02 18:25:46.474Z20.905° NNE
4 mins2024-12-02 21:43:46.474Z357.007° N2024-12-02 21:44:46.474Z16.26° NNE18.518°2024-12-02 21:47:46.474Z65.835° ENE
6 mins2024-12-02 23:22:46.474Z315.295° NNW2024-12-02 23:24:46.474Z356.254° N43.854°2024-12-02 23:28:46.474Z125.677° SE
|